Torna al catalogo

FENGYUN 1C DEB

AttivoPO
NORAD 31781·DEBRIS·🇨🇳 China

Lanciato May 10, 1999 da Taiyuan Satellite Launch Center

Loading…

Prossimi Passaggi (prossime 24 ore)

TLE

In scadenzaSource: Space-Track

Epoca: Sep 5, 2026, 07:52 UTC

1 31781U 99025CGG 26248.32835677  .00002805  00000-0  12055-2 0  9998
2 31781  99.5016  81.5954 0190944 249.6837 108.3725 14.16309236721180

Traccia FENGYUN 1C DEB in tempo reale con AllMySat

Download on the App Store